Hourly Data Report for January 21, 2021

CARBERRY CS
MANITOBA
Current Station Operator: ECCC - MSC

49°54'20.900" N
99°21'26.800" W
383.50 m
5010547
71170
WZE

Download Data

Hourly Data (January 2021)
Hourly Data Report for January 21, 2021
TIME
LST
Temp Definition
°C
Dew Point Definition
°C
Rel Hum Definition
%
Precip. Amount Definition
mm

Wind Dir Definition
10's deg

Wind Spd Definition
km/h
Visibility Definition
km
Stn Press Definition
kPa
Hmdx Definition


Wind Chill Definition


Weather Definition


00:00 -1.5 -3.8 84 0.0 28 34   95.30   -9 LegendNANA
01:00 -5.3 -9.0 75 0.0 36 29   95.59   -13 LegendNANA
02:00 -9.6 -13.0 76 0.0 1 28   95.78   -19 LegendNANA
03:00 -12.4 -15.7 76 0.0 1 25   95.99   -22 LegendNANA
04:00 -14.3 -17.6 76 0.0 1 24   96.22   -24 LegendNANA
05:00 -14.8 -18.1 76 0.0 1 21   96.35   -24 LegendNANA
06:00 -15.2 -18.4 76 0.0 36 19   96.47   -24 LegendNANA
07:00 -15.8 -19.1 76 0.0 36 17   96.61   -24 LegendNANA
08:00 -16.8 -20.0 76 0.0 34 12   96.74   -24 LegendNANA
09:00 -17.4 -20.6 76 0.0 32 10   96.87   -24 LegendNANA
10:00 -16.5 -20.6 71 0.0 36 8   96.99   -22 LegendNANA
11:00 -15.6 -19.7 70 0.0 34 14   97.11   -23 LegendNANA
12:00 -14.7 -18.9 70 0.0 33 13   97.14   -22 LegendNANA
13:00 -13.6 -18.2 68 0.0 33 9   97.16   -19 LegendNANA
14:00 -13.0 -17.4 70 0.0 30 9   97.23   -18 LegendNANA
15:00 -12.6 -17.5 67 0.0 33 5   97.27   -16 LegendNANA
16:00 -11.5 -17.8 60 0.0 31 1   97.30   -12 LegendNANA
17:00 -12.9 -17.7 67 0.0 2 2   97.33   -14 LegendNANA
18:00 -14.2 -17.4 76 0.0 17 4   97.33   -17 LegendNANA
19:00 -13.9 -17.1 76 0.0 27 13   97.34   -21 LegendNANA
20:00 -14.2 -18.0 73 0.0 27 18   97.34   -23 LegendNANA
21:00 -14.8 -18.3 75 0.0 26 17   97.33   -23 LegendNANA
22:00 -15.6 -19.0 75 0.0 26 24   97.31   -26 LegendNANA
23:00 -15.7 -18.8 77 0.0 26 15   97.30   -24 LegendNANA

Notes on Data Quality.

Legend

  • E = Estimated
  • M = Missing
  • NA = Not Available*
  • [empty] = Indicates an unobserved value
Date modified: